Погода в Клинцовке

Россия / Саратовская область     51°40′23″N   49°11′53″E
темп.,
°C
ветер,
м/с
пор.,
м/с
влажн.,
%
обл.,
%
осадки,
мм/ч
давл.,
гПа
погр.,
м
18 августа, чт
чт1801:00+24всв51333100 0.0 1017352
04:00+24всв71134100 0.0 1017346
07:00+23всв81438100 0.0 1016363
10:00+26в81134100 0.0 1017678
13:00+30в8827100 0.0 10171217
16:00+30в7827100 0.0 10161221
19:00+26всв91135100 0.0 1017479
22:00+25всв61232100 0.0 1018568
19 августа, пт
пт1901:00+23вюв4941100 0.0 1019307
04:00+22в51044100 0.2 1020563
07:00+20в71247100 0.1 1022548
10:00+23вюв91139100 0.1 10241020
13:00+26вюв101130100 0.0 10241588
16:00+26вюв91023100 0.0 10251790
19:00+24в71020100 0.0 1026935
22:00+20в51125100 0.0 1027305
20 августа, сб
сб2001:00+18в41030100 0.0 1029230
04:00+17в4933100 0.0 1029196
07:00+17в4934100 0.0 1030266
10:00+22вюв5723100 0.0 1030817
13:00+25в5519100 0.0 10291530
16:00+26в451794 0.0 10281710
19:00+24в2323100 0.0 102732
22:00+20св222890 0.0 102711
21 августа, вс
вс2101:00+18всв333596 0.0 102720
04:00+17всв334471 0.0 102724
07:00+18всв354748 0.0 1027144
10:00+26в46385 0.0 10261006
13:00+30всв67305 0.0 10242307
16:00+31в56242 0.0 10232944
19:00+28всв46295 0.0 1022155
22:00+26в6113997 0.0 1023533
22 августа, пн
пн2201:00+24всв4947100 0.0 1023307
04:00+20всв46620 0.0 1024116
07:00+22св37585 0.0 1024234
10:00+26в56431 0.0 10241055
13:00+30всв663241 0.0 10232685
16:00+31св562727 0.0 10222984
19:00+29в7931100 0.0 1022710
22:00+25в611403 0.0 1023467